Location: Dillon
(41.1766°N, 107.0923°W)
Time: 22:06:29
(UTC+00:00)

Envisat - Visible Passes

Search period start: 22 January 2022 00:00
Search period end: 01 February 2022 00:00
Orbit: 764 x 766 km, 98.2° (Epoch: 22 January)

Date Brightness Start Highest point End Pass type
(mag) Time Alt. Az. Time Alt. Az. Time Alt. Az.
22 Jan 3.3 11:51:45 10° NNE 11:56:49 65° ESE 12:01:50 10° S visible
22 Jan 4.4 13:32:14 10° NNW 13:35:16 16° WNW 13:38:18 10° W visible
23 Jan 6.4 00:49:34 10° WSW 00:50:44 11° W 00:51:54 10° WNW visible
23 Jan 4.8 11:15:23 10° NE 11:19:47 29° E 11:24:09 10° SSE visible
23 Jan 3.6 12:54:15 10° N 12:58:46 33° WNW 13:03:17 10° SW visible
24 Jan 5.8 10:40:19 10° ENE 10:42:33 13° E 10:44:47 10° ESE visible
24 Jan 2.8 12:17:00 10° N 12:22:05 73° WNW 12:27:08 10° SSW visible
25 Jan 3.7 11:40:15 10° NNE 11:45:12 50° E 11:50:07 10° S visible
25 Jan 4.2 13:20:11 10° NNW 13:23:49 20° WNW 13:27:26 10° WSW visible
26 Jan 5.1 11:04:07 10° NE 11:08:06 23° E 11:12:04 10° SE visible
26 Jan 3.3 12:42:30 10° N 12:47:16 42° WNW 12:52:00 10° SW visible
27 Jan 2.9 12:05:24 10° NNE 12:10:30 88° ESE 12:15:35 10° SSW visible
27 Jan 4.7 13:46:54 10° NW 13:48:45 12° WNW 13:50:36 10° W visible
28 Jan 4.2 11:28:47 10° NNE 11:33:33 39° E 11:38:17 10° SSE visible
28 Jan 3.9 13:08:15 10° NNW 13:12:20 25° WNW 13:16:25 10° WSW visible
29 Jan 5.5 10:53:00 10° NE 10:56:24 18° E 10:59:48 10° SE visible
29 Jan 3.0 12:30:47 10° N 12:35:43 53° WNW 12:40:39 10° SSW visible
30 Jan 3.2 11:53:49 10° NNE 11:58:54 70° ESE 12:03:57 10° S visible
30 Jan 4.5 13:34:29 10° NNW 13:37:19 15° WNW 13:40:09 10° W visible
31 Jan 4.7 11:17:24 10° NE 11:21:54 31° E 11:26:21 10° SSE visible
31 Jan 3.7 12:56:25 10° N 13:00:51 31° WNW 13:05:16 10° SW visible
